Location: Paris
(48.8566°N, 2.3522°E)
Time: 10:09:10
(UTC+02:00)

Tiangong - Pass Details

Date: 27 September 2021
Orbit: 382 x 385 km, 41.5° (Epoch: 15 October)

Event Time Altitude Azimuth Distance (km) Brightness Sun altitude
Exits shadow 06:33:18 - 197° (SSW) 1,731 4.1 -12.5°
Reaches altitude 10° 06:35:05 10° 171° (S) 1,394 3.9 -12.2°
Maximum altitude 06:35:49 11° 157° (SSE) 1,359 4.0 -12.0°
Drops below altitude 10° 06:36:34 10° 143° (SE) 1,396 4.2 -11.9°
Sets 06:40:03 0° 103° (ESE) 2,251 6.3 -11.4°
